Weather History for KRSV - March, 2013

Change the Weather History Date:

Saturday, March 16, 2013

  Actual Average (KLWV) Record (KLWV)
Temperature  
Mean Temperature 49 °F 45 °F  
Max Temperature 61 °F 55 °F 76 °F (2015)
Min Temperature 38 °F 35 °F 21 °F (1992)
Degree Days  
Heating Degree Days 16 20  
Month to date heating degree days 360  
Since 1 July heating degree days 4035  
Cooling Degree Days 0 0  
Month to date cooling degree days 0  
Year to date cooling degree days 0  
Moisture  
Dew Point 39 °F    
Average Humidity 72    
Maximum Humidity 82    
Minimum Humidity 60    
Precipitation  
Precipitation 0.00 in 0.12 in 1.00 in (1968)
Month to date precipitation 1.42  
Year to date precipitation 5.81  
Sea Level Pressure  
Sea Level Pressure 29.86 in    
Wind  
Wind Speed 8 mph (NW)    
Max Wind Speed 16 mph    
Max Gust Speed 23 mph    
Visibility 9 miles    
Events Thunderstorm    
T = Trace of Precipitation, MM = Missing Value Source: NWS Daily Summary

Daily Weather History Graph

Daily Weather History Graph

Search for Another Location

Airport or City:

Trip Planner

Search our weather history database for the weather conditions in past years. The results will help you decide how hot, cold, wet, or windy it might be!

Date:

Astronomy

Mar. 16, 2013 Rise Set
Actual Time 6:59 AM CDT 6:58 PM CDT
Civil Twilight 6:33 AM CDT 7:25 PM CDT
Nautical Twilight 6:02 AM CDT 7:56 PM CDT
Astronomical Twilight 5:30 AM CDT 8:28 PM CDT
Moon 9:31 AM CDT (3/16) No Moon Set
Length of Visible Light 12h 52m
Length of Day
11h 58m
Waxing Crescent, 23% of the Moon is Illuminated
Mar 16
Waxing Crescent
Mar 19
First Quarter
Mar 27
Full
Apr 2
Last Quarter
Apr 10
New

Hourly Weather History & Observations

Time (CDT) Temp. Windchill Dew Point Humidity Pressure Visibility Wind Dir Wind Speed Gust Speed Precip Events Conditions
12:15 AM 51.3 °F - 42.8 °F 73% 29.68 in 10.0 mi Calm Calm - N/A   Clear
12:35 AM 49.3 °F - 42.3 °F 77% 29.68 in 10.0 mi Calm Calm - N/A   Clear
12:55 AM 49.1 °F - 42.1 °F 77% 29.67 in 10.0 mi Calm Calm - N/A   Clear
1:15 AM 48.7 °F - 42.6 °F 79% 29.67 in 10.0 mi Calm Calm - N/A   Clear
1:35 AM 48.9 °F - 42.8 °F 79% 29.66 in 10.0 mi Calm Calm - N/A   Clear
1:55 AM 48.9 °F - 42.8 °F 79% 29.66 in 10.0 mi Calm Calm - N/A   Clear
2:15 AM 48.4 °F - 43.2 °F 82% 29.65 in 10.0 mi SSW 8.1 mph - N/A   Clear
2:55 AM 60.4 °F - 48.4 °F 64% 29.64 in 10.0 mi SW 13.8 mph - N/A   Clear
3:15 AM 60.8 °F - 48.2 °F 63% 29.64 in 10.0 mi SSW 13.8 mph - N/A   Scattered Clouds
3:55 AM 60.1 °F - 48.2 °F 65% 29.64 in 10.0 mi SSW 12.7 mph - N/A   Mostly Cloudy
4:15 AM 60.6 °F - 48.2 °F 64% 29.63 in 10.0 mi SSW 11.5 mph - N/A   Mostly Cloudy
4:35 AM 60.3 °F - 47.8 °F 64% 29.64 in 10.0 mi SSW 11.5 mph - N/A   Scattered Clouds
4:55 AM 60.1 °F - 47.7 °F 64% 29.64 in 10.0 mi SW 10.4 mph - N/A   Clear
5:15 AM 59.4 °F - 47.3 °F 64% 29.64 in 10.0 mi SW 11.5 mph - N/A Thunderstorm Clear
5:35 AM 58.8 °F - 47.3 °F 66% 29.64 in 10.0 mi SSW 10.4 mph - N/A   Clear
5:55 AM 58.8 °F - 47.3 °F 66% 29.64 in 10.0 mi SW 12.7 mph - N/A   Clear
6:15 AM 60.6 °F - 46.8 °F 60% 29.65 in 10.0 mi SW 16.1 mph - N/A   Clear
6:55 AM 57.7 °F - 46.4 °F 66% 29.67 in 10.0 mi SW 11.5 mph - N/A   Clear
7:15 AM 58.1 °F - 46.4 °F 65% 29.68 in 10.0 mi WSW 13.8 mph - N/A   Clear
7:35 AM 56.3 °F - 45.9 °F 68% 29.69 in 10.0 mi West 8.1 mph - N/A   Clear
7:55 AM 57.7 °F - 46.0 °F 65% 29.71 in 10.0 mi West 10.4 mph - N/A   Clear
8:15 AM 57.6 °F - 46.2 °F 66% 29.72 in 10.0 mi NW 11.5 mph - N/A   Clear
8:35 AM 54.7 °F - 44.4 °F 68% 29.74 in 10.0 mi NW 12.7 mph - N/A   Clear
8:55 AM 52.2 °F - 42.4 °F 69% 29.76 in 7.0 mi NW 15.0 mph 21.9 mph N/A   Clear
9:15 AM 49.1 °F - 40.5 °F 72% 29.78 in 7.0 mi NW 13.8 mph - N/A   Clear
9:35 AM 46.0 °F 39.3 °F 39.6 °F 78% 29.80 in 5.0 mi NW 16.1 mph 23.0 mph N/A   Haze
9:55 AM 45.5 °F 38.6 °F 39.6 °F 80% 29.82 in 5.0 mi NW 16.1 mph 21.9 mph N/A   Haze
10:15 AM 44.8 °F 37.7 °F 39.2 °F 81% 29.84 in 4.0 mi WNW 16.1 mph 23.0 mph N/A   Haze
10:55 AM 44.8 °F 38.0 °F 39.2 °F 81% 29.86 in 3.0 mi NW 15.0 mph - N/A   Haze
11:15 AM 44.6 °F 38.8 °F 38.8 °F 80% 29.88 in 3.0 mi NW 11.5 mph 20.7 mph N/A   Haze
11:35 AM 45.7 °F 40.2 °F 39.0 °F 78% 29.89 in 3.0 mi NW 11.5 mph 19.6 mph N/A   Haze
11:55 AM 46.9 °F - 39.0 °F 74% 29.90 in 4.0 mi WNW 11.5 mph - N/A   Haze
12:15 PM 47.5 °F - 39.4 °F 73% 29.91 in 4.0 mi West 10.4 mph - N/A   Haze
12:55 PM 49.1 °F - 38.3 °F 66% 29.92 in 5.0 mi NNW 15.0 mph 20.7 mph N/A   Haze
1:15 PM 48.2 °F - 38.1 °F 68% 29.93 in 5.0 mi NW 16.1 mph 20.7 mph N/A   Haze
1:35 PM 48.0 °F - 37.9 °F 68% 29.95 in 7.0 mi NW 11.5 mph 17.3 mph N/A   Overcast
1:55 PM 47.7 °F - 38.7 °F 71% 29.95 in 5.0 mi NW 12.7 mph 16.1 mph N/A   Haze
2:15 PM 46.6 °F - 37.6 °F 71% 29.95 in 5.0 mi NW 10.4 mph - N/A   Haze
2:55 PM 45.5 °F 39.6 °F 37.4 °F 73% 29.97 in 7.0 mi NW 12.7 mph - N/A   Overcast
3:15 PM 45.5 °F 39.9 °F 37.2 °F 73% 29.97 in 7.0 mi NW 11.5 mph 17.3 mph N/A   Overcast
3:35 PM 44.6 °F 39.2 °F 36.5 °F 73% 29.99 in 7.0 mi NW 10.4 mph - N/A   Overcast
3:55 PM 44.6 °F 38.1 °F 36.0 °F 72% 29.98 in 10.0 mi NW 13.8 mph - N/A   Overcast
4:15 PM 43.7 °F 36.3 °F 35.6 °F 73% 29.99 in 10.0 mi NNW 16.1 mph - N/A   Overcast
4:35 PM 43.2 °F 35.9 °F 35.1 °F 73% 29.98 in 10.0 mi NNW 15.0 mph - N/A   Overcast
4:55 PM 43.0 °F 36.0 °F 34.5 °F 72% 29.98 in 10.0 mi NNW 13.8 mph 19.6 mph N/A   Overcast
5:15 PM 42.8 °F 36.6 °F 34.5 °F 73% 29.98 in 10.0 mi NNW 11.5 mph 17.3 mph N/A   Mostly Cloudy
5:55 PM 41.9 °F 36.3 °F 33.6 °F 72% 29.99 in 10.0 mi NNW 9.2 mph - N/A   Overcast
6:15 PM 41.9 °F 36.3 °F 33.6 °F 72% 30.01 in 10.0 mi NNW 9.2 mph - N/A   Overcast
6:35 PM 41.4 °F 36.2 °F 33.6 °F 74% 30.03 in 10.0 mi NW 8.1 mph - N/A   Overcast
6:55 PM 41.4 °F 36.8 °F 33.3 °F 73% 30.03 in 10.0 mi NW 6.9 mph - N/A   Overcast
7:15 PM 41.4 °F 36.8 °F 33.4 °F 73% 30.05 in 10.0 mi WNW 6.9 mph - N/A   Overcast
7:35 PM 41.2 °F 37.3 °F 33.6 °F 74% 30.06 in 10.0 mi NW 5.8 mph - N/A   Overcast
8:15 PM 40.8 °F 36.9 °F 32.9 °F 73% 30.05 in 10.0 mi NNW 5.8 mph - N/A   Overcast
8:35 PM 40.6 °F 35.4 °F 32.7 °F 73% 30.05 in 10.0 mi NNW 8.1 mph - N/A   Overcast
8:55 PM 40.6 °F 35.4 °F 32.7 °F 73% 30.05 in 10.0 mi NNW 8.1 mph - N/A   Overcast
9:15 PM 40.3 °F 34.4 °F 32.0 °F 72% 30.05 in 10.0 mi North 9.2 mph - N/A   Overcast
9:35 PM 40.1 °F 33.6 °F 32.0 °F 73% 30.05 in 10.0 mi North 10.4 mph - N/A   Overcast
9:55 PM 39.7 °F 33.7 °F 32.0 °F 74% 30.06 in 10.0 mi North 9.2 mph - N/A   Overcast
10:15 PM 39.6 °F 33.0 °F 31.6 °F 73% 30.06 in 10.0 mi North 10.4 mph - N/A   Overcast
10:55 PM 39.2 °F 33.6 °F 31.5 °F 74% 30.07 in 10.0 mi North 8.1 mph - N/A   Overcast
11:15 PM 39.2 °F 31.6 °F 31.5 °F 74% 30.06 in 10.0 mi North 12.7 mph - N/A   Overcast
11:35 PM 38.5 °F 30.3 °F 30.9 °F 74% 30.05 in 10.0 mi North 13.8 mph - N/A   Overcast
11:55 PM 38.3 °F 30.5 °F 30.9 °F 75% 30.05 in 10.0 mi North 12.7 mph 18.4 mph N/A   Overcast